User: anonymous   Login
Location: Unspecified
(0.0000°N, 0.0000°E)
Time: 06:06:54
(UTC+00:00)
Language:

USA 37 - Orbit

View from above orbital plane
View from above orbital plane
View from above satellite
View from above satellite

Ground track
Ground track

The orbit data is extracted from the following two-line orbital elements,

1 19976U 89035A   18038.37489204 0.00000000  00000-0  00000-0 0    07
2 19976   8.0327   7.8685 0984541 283.4044  65.8592  1.00270000    09
Epoch (UTC): 07 February 2018 08:59:50
Eccentricity: 0.0984541
inclination: 8.0327°
perigee height: 31635 km
apogee height: 39938 km
right ascension of ascending node: 7.8685°
argument of perigee: 283.4044°
revolutions per day: 1.00270000
mean anomaly at epoch: 65.8592°
orbit number at epoch: 0

The dashed part of the orbit path shows where the satellite is in the earth's shadow,  

DLR